This is the latest recevied weather packets stored in our database for station/object K9TLD. If no packets are shown the sender has not sent any weather packets the latest 10 day(s).
| Time | Temp. | Humidity | Pressure | Rain* | Wind** | Luminosity | Snow |
|---|---|---|---|---|---|---|---|
| 1778188318 | 8.33° C | 58% | 1012.9 hPa | 0 mm | - | 113 W/m² | - |
| 1778188016 | 8.33° C | 58% | 1013 hPa | 0 mm | - | 135 W/m² | - |
| 1778187712 | 8.89° C | 57% | 1013 hPa | 0 mm | - | 113 W/m² | - |
| 1778187409 | 8.89° C | 55% | 1013.2 hPa | 0 mm | - | 124 W/m² | - |
| 1778187106 | 9.44° C | 55% | 1013 hPa | 0 mm | - | 177 W/m² | - |
| 1778186802 | 10° C | 56% | 1013.1 hPa | 0 mm | - | 214 W/m² | - |
| 1778186500 | 9.44° C | 55% | 1013.1 hPa | 0 mm | - | 506 W/m² | - |
| 1778186197 | 10° C | 56% | 1013.3 hPa | 0 mm | - | 242 W/m² | - |
| 1778185895 | 9.44° C | 63% | 1013.1 hPa | 0 mm | - | 584 W/m² | - |
| 1778185590 | 8.89° C | 62% | 1013.4 hPa | 0 mm | - | 277 W/m² | - |
| 1778185287 | 8.89° C | 64% | 1013.4 hPa | 0 mm | - | 567 W/m² | - |
| 1778184982 | 7.78° C | 63% | 1013.3 hPa | 0 mm | - | 286 W/m² | - |
| 1778184679 | 8.33° C | 59% | 1013.4 hPa | 0 mm | - | 146 W/m² | - |
| 1778184375 | 8.89° C | 57% | 1013.4 hPa | 0 mm | - | 251 W/m² | - |
| 1778184071 | 8.89° C | 60% | 1013.5 hPa | 0 mm | - | 226 W/m² | - |
| 1778183769 | 8.33° C | 62% | 1013.3 hPa | 0 mm | - | 269 W/m² | - |
| 1778183466 | 7.78° C | 62% | 1013.7 hPa | 0 mm | - | 159 W/m² | - |
| 1778183162 | 7.78° C | 61% | 1013.6 hPa | 0 mm | - | 111 W/m² | - |
| 1778182857 | 7.78° C | 63% | 1013.3 hPa | 0 mm | - | 78 W/m² | - |
| 1778182555 | 8.33° C | 62% | 1013.5 hPa | 0 mm | - | 82 W/m² | - |
| 1778182252 | 8.33° C | 60% | 1013.5 hPa | 0 mm | - | 60 W/m² | - |
| 1778181948 | 8.89° C | 60% | 1013.3 hPa | 0 mm | - | 167 W/m² | - |
| 1778181645 | 10° C | 59% | 1013.2 hPa | 0 mm | - | 208 W/m² | - |
| 1778181340 | 9.44° C | 61% | 1013.4 hPa | 0 mm | - | 798 W/m² | - |
| 1778181038 | 8.33° C | 61% | 1013.5 hPa | 0 mm | - | 527 W/m² | - |
* Rain latest hour (hover to see other rain measurements)
** Current wind speed in m/s (hover to see current wind gust speed)